PLEIADES NEO 3

Last updated on Mon Oct 14 2024 00:02:25 GMT+0000 (Coordinated Universal Time)

1 48268U 21034A 24287.54406044 .00001361 00000+0 17959-3 0 9992 2 48268 97.8941 0.0872 0000712 93.1977 266.9318 14.81666302187087
UTC large
Height (km)
Speed (km/s)
/
Latitude / Longitude
Inclination (degrees)
Orbital Period (minutes)
Azimuth
Elevation
Range (km)
Doppler Factor

Next 0 passes for location: London (51.5072 / 0.1276)

Sorry there are no passes over London.